Vorticity
nan nan nan nan nan nan nan nan nan nan nan nan nan nan nan nan nan nan nan nan nan nan nan nan nan nan nan nan nan nan nan nan
nan 6 2 3 3 6 9 9 7 7 6 6 4 4 4 5 5 6 7 8 8 6 6 7 7 6 6 6 6 5 5 nan
nan 3 4 5 8 6 5 3 5 5 6 5 4 5 5 4 5 6 7 9 8 7 7 5 3 2 3 6 6 6 5 nan
nan 2 5 7 7 6 7 3 2 6 6 3 4 6 5 4 4 5 5 5 4 4 3 4 5 3 3 4 7 8 7 nan
nan 4 6 6 3 3 7 8 6 8 7 6 6 5 6 7 6 5 3 2 4 3 2 4 8 8 7 7 8 7 7 nan
nan 5 4 2 3 7 7 7 7 7 7 7 5 7 8 8 8 7 6 6 7 6 6 7 6 8 7 7 8 8 9 nan
nan 1 2 3 3 6 9 8 8 7 6 5 7 8 7 7 7 6 7 7 6 7 7 6 5 5 7 7 7 7 9 nan
nan 1 3 4 7 7 6 7 7 7 7 9 8 7 7 7 7 7 7 8 8 7 7 7 6 6 7 7 7 7 7 nan
nan 4 4 6 6 7 7 7 7 7 9 9 8 8 8 6 6 7 7 8 7 7 7 7 6 7 7 6 6 7 7 nan
nan 6 6 6 7 7 7 8 8 9 9 8 9 8 6 5 6 7 8 7 6 6 6 6 7 7 6 6 7 7 7 nan
nan 6 6 7 8 8 8 8 9 9 9 9 9 7 6 6 8 9 7 6 7 7 7 8 8 7 7 7 7 7 7 nan
nan 7 8 7 7 7 8 7 8 8 8 10 9 7 8 7 8 8 7 7 8 8 7 7 9 8 7 7 6 8 7 nan
nan 6 7 6 6 7 8 9 8 8 10 10 8 9 8 7 7 7 7 8 8 7 6 7 8 8 7 6 5 7 7 nan
nan 7 7 4 4 7 10 11 9 10 10 11 9 8 8 8 8 7 8 8 8 7 5 4 7 9 6 7 9 7 7 nan
nan 8 7 7 5 2 5 8 9 10 9 9 10 9 8 8 7 8 7 7 9 9 9 8 5 8 9 9 9 7 10 nan
nan 9 7 8 7 5 4 3 6 9 9 10 10 9 8 8 7 7 7 8 9 9 10 8 8 8 8 8 8 9 9 nan
nan 9 8 9 7 6 5 6 6 10 11 9 7 9 9 8 7 7 6 8 9 7 9 8 7 8 8 8 7 8 8 nan
nan 8 7 9 8 8 6 6 7 7 9 5 7 7 8 8 7 7 8 9 7 7 9 7 7 8 9 8 7 7 8 nan
nan 9 8 8 9 6 7 8 10 9 4 5 7 7 9 10 7 7 7 7 9 6 7 9 8 7 7 6 7 7 8 nan
nan nan nan nan nan nan nan nan nan nan nan nan nan nan nan nan nan nan nan nan nan nan nan nan nan nan nan nan nan nan nan nan
CAPE
1 9 2 65 235 278 356 512 502 558 564 590 579 471 433 392 330 263 261 325 418 186 60 171 119 0 0 0 0 0 0 0
5 2 3 15 93 309 402 387 431 461 495 399 311 359 346 337 260 243 228 216 359 109 37 20 0 0 0 0 0 0 0 0
6 15 1 17 138 334 407 410 402 367 308 273 146 129 91 38 71 128 191 73 78 51 0 0 0 0 0 0 0 0 0 0
10 2 0 0 56 133 232 268 201 176 152 136 96 117 75 42 85 154 38 0 0 0 0 0 0 0 0 0 0 0 0 0
3 0 0 0 0 46 122 144 121 134 116 107 92 117 19 14 0 0 0 0 0 0 0 0 0 0 0 0 0 0 0 0
4 0 0 2 8 165 72 56 71 99 41 97 153 18 0 0 0 0 0 0 0 0 0 0 0 0 0 0 0 0 0 0
6 0 0 104 165 111 38 32 37 52 73 134 75 0 0 0 0 0 0 0 0 0 0 0 0 0 0 0 0 0 0 0
5 29 108 234 210 39 4 26 43 38 76 85 0 0 0 0 0 0 0 0 0 0 0 0 0 0 0 0 0 0 0 0
6 14 204 388 183 6 4 1 57 106 94 0 0 0 0 0 0 0 0 0 0 0 0 0 0 0 0 0 0 0 0 0
22 10 131 427 143 0 2 57 260 253 62 0 0 0 0 0 0 0 0 0 0 0 0 0 0 0 0 0 0 0 0 0
67 92 192 360 166 1 35 199 243 102 22 0 0 0 0 0 0 0 0 0 0 0 0 0 0 0 0 0 0 0 0 0
143 133 217 262 70 7 25 54 6 2 1 0 0 0 0 0 0 0 0 0 0 0 0 0 0 0 0 0 0 0 0 0
248 235 246 149 29 45 57 124 0 0 0 0 0 0 0 0 0 0 0 0 0 0 0 0 0 0 0 0 0 0 0 0
354 320 225 149 138 44 37 2 0 0 0 0 0 0 0 0 0 0 0 0 0 0 0 0 0 0 0 0 0 0 0 0
434 360 232 176 101 0 0 0 0 0 0 0 0 0 0 0 0 0 0 0 0 0 0 0 0 0 0 0 0 0 0 0
405 226 97 61 0 0 0 0 0 0 0 0 0 0 0 0 0 0 0 0 0 0 0 0 0 0 0 0 0 0 0 0
461 253 101 34 0 0 0 0 0 0 0 0 0 0 0 0 0 0 0 0 0 0 0 0 0 0 0 0 0 0 0 0
494 346 182 60 0 0 0 0 0 0 0 0 0 0 0 0 0 0 0 0 0 0 0 0 0 0 0 0 0 0 0 0
457 406 288 41 0 0 0 0 0 0 0 0 0 0 0 0 0 0 0 0 0 0 0 0 0 0 0 0 0 0 0 0
393 432 441 91 0 0 0 0 0 0 0 0 0 0 0 0 0 0 0 0 0 0 0 0 0 0 0 0 0 0 0 0